Нелькоба

Россия / Магаданская область     61°21′47″N   148°49′19″E
темп.,
°C
ветер,
м/с
пор.,
м/с
влажн.,
%
обл.,
%
осадки,
мм/ч
давл.,
гПа
погр.,
м
6 мая, чт
чт623:00−3юз119787 0.0 101710
02:00−2з0191100 0.0 101710
05:00−2юв1186100 0.0 101710
08:000ю1179100 0.0 101629
11:00+1всв1171100 0.0 1016431
14:00+1вюв116465 0.0 1015805
17:00+3ююв116274 0.0 1014891
20:00+1з117589 0.0 101410
7 мая, пт
пт723:00−2сз118486 0.0 101410
02:00−3з018815 0.0 101410
05:00−4с1191100 0.0 101410
08:00−2ссв228716 0.0 1014173
11:00+1ссв227150 0.0 1013642
14:00+3ссв22548 0.0 1012991
17:00+4ссв224942 0.0 10111216
20:00+2ссв226267 0.0 101219
8 мая, сб
сб823:000св217222 0.0 101410
02:00−1св227897 0.0 101522
05:00−2св228092 0.0 101538
08:00−1св127048 0.0 1016469
11:00+1св225788 0.0 10151055
14:00+3ссв224799 0.0 10141417
17:00+4св114599 0.1 10131438
20:00+3вюв225299 0.0 1014504
9 мая, вс
вс923:000ююв116457 0.0 101510
02:000ююв11635 0.0 101510
05:00−1ю22635 0.0 101611
08:00+1ю22575 0.0 1015426
11:00+3ююз2255100 0.0 1014966
14:00+4юз335498 0.0 10141229
17:00+4зюз3354100 0.1 10141160
20:00+4зюз235763 0.0 1015855
10 мая, пн
пн1023:00+1юз227218 0.0 101629
02:000юз228213 0.0 101717
05:00−1ююз228328 0.0 101824
08:00+2ююз116953 0.0 1018332
11:00+4ююз015976 0.0 10161005
14:00+6св114896 0.3 10151414
17:00+6св1151100 0.8 10151211
20:00+4всв1278100 0.5 1017539